Location: Kimberly
(42.5380°N, 114.3640°W)
Time: 12:27:11
(UTC-06:00)

Amateur Radio Satellites - All Passes

Search period start: 19 October 2017 11:57
Search period end: 20 October 2017 11:57
Location: Kimberly, 42.5380°N, 114.3640°W

Satellite Date Start Highest point End Downlink Frequencies (MHz)
Time Altitude Azimuth
Max Valier Satellite 19 Oct 12:03:52 12:07:14 34° 288° (WNW) 12:10:34 145.860
ESTCUBE 1 19 Oct 12:15:13 12:18:30 20° 93° (E) 12:21:46 437.505/2401.250
nSIGHT-1 19 Oct 12:28:24 12:31:27 41° 333° (NNW) 12:34:31 .
DELFI C3 19 Oct 12:30:19 12:32:42 16° 295° (WNW) 12:35:05 145.870
LO-87 19 Oct 12:49:44 12:53:22 73° 102° (ESE) 12:56:58 145.935 - 145.965
EO-79 19 Oct 12:50:25 12:54:40 79° 257° (WSW) 12:58:59 145.935-145.965
POLYITAN 1 19 Oct 12:54:50 12:59:06 70° 258° (WSW) 13:03:24 437.675
ISS 19 Oct 12:58:35 13:01:30 30° 337° (NNW) 13:04:28 437.550
Oscar 19 19 Oct 13:08:20 13:12:08 21° 63° (ENE) 13:15:57 437.125/150
SPROUT 19 Oct 13:09:56 13:12:57 18° 93° (E) 13:15:57 437.525
AIST 2D 19 Oct 13:10:29 13:12:18 14° 268° (W) 13:14:07 435.315
M-CUBED/EXP-1 PRIME 19 Oct 13:12:51 13:15:10 18° 63° (ENE) 13:17:26 437.505
YUBILEINY 19 Oct 13:14:08 13:18:43 15° 303° (WNW) 13:23:20 435.215
QB50P2 19 Oct 13:15:26 13:19:24 37° 262° (W) 13:23:23 145.880/145.840
BEESAT 3 19 Oct 13:15:38 13:19:30 52° 119° (ESE) 13:23:26 437.485
NANOSAT C BR1 19 Oct 13:19:44 13:23:45 41° 262° (W) 13:27:48 145.865
AO-7 19 Oct 13:24:31 13:25:19 10° 38° (NE) 13:26:06 .
Gurwin Techsat 1B 19 Oct 13:30:36 13:34:47 24° 64° (ENE) 13:38:58 435.225
DUCHIFAT 1 19 Oct 13:31:16 13:35:09 35° 263° (W) 13:39:04 145.980
RS-15 19 Oct 13:32:37 13:39:50 19° 263° (W) 13:46:54 29.354- 29.394
AO-85 19 Oct 13:42:05 13:44:50 19° 112° (ESE) 13:47:37 145.980
BUGSAT 1 19 Oct 13:42:50 13:46:59 80° 76° (ENE) 13:51:14 437.445
VELOX 1 19 Oct 13:45:38 13:49:34 30° 96° (E) 13:53:29 145.980
ESTCUBE 1 19 Oct 13:51:16 13:55:26 40° 290° (WNW) 13:59:36 437.505/2401.250
nSIGHT-1 19 Oct 14:06:09 14:08:21 17° 353° (N) 14:10:32 .
BEESAT 2 19 Oct 14:33:37 14:37:36 76° 304° (NW) 14:41:40 435.950
ISS 19 Oct 14:36:32 14:38:43 16° 358° (N) 14:40:55 437.550
SPROUT 19 Oct 14:44:58 14:48:59 39° 289° (WNW) 14:52:59 437.525
Oscar 19 19 Oct 14:46:04 14:51:05 51° 260° (W) 14:56:07 437.125/150
M-CUBED/EXP-1 PRIME 19 Oct 14:46:34 14:49:28 26° 257° (WSW) 14:52:18 437.505
BEESAT 3 19 Oct 14:54:29 14:57:21 18° 317° (NW) 15:00:14 437.485
DX 1 19 Oct 14:55:06 14:59:15 41° 99° (E) 15:03:23 434.975-435.025
AO-7 19 Oct 15:08:15 15:15:52 43° 60° (ENE) 15:23:30 .
Gurwin Techsat 1B 19 Oct 15:09:20 15:14:25 47° 261° (W) 15:19:33 435.225
SO-50 19 Oct 15:09:28 15:12:07 15° 37° (NE) 15:14:46 436.795
ITAMSAT 1 19 Oct 15:17:41 15:21:38 23° 63° (ENE) 15:25:37 435.822/435.867
50 SAT 19 Oct 15:20:26 15:23:43 64° 285° (WNW) 15:26:59 437.505
UKube-1 19 Oct 15:21:15 15:25:28 50° 100° (E) 15:29:39 .
AO-85 19 Oct 15:21:17 15:24:55 37° 310° (NW) 15:28:40 145.980
VELOX 1 19 Oct 15:22:13 15:25:54 26° 293° (WNW) 15:29:34 145.980
nSIGHT-1 19 Oct 15:43:04 15:45:29 19° 13° (NNE) 15:47:55 .
MOZHAYETS 4 19 Oct 15:45:45 15:48:09 14° 90° (E) 15:50:31
ITUPSAT 1 19 Oct 16:04:53 16:08:22 20° 93° (E) 16:11:49 437.325
ISS 19 Oct 16:13:18 16:16:02 24° 18° (NNE) 16:18:46 437.550
BEESAT 2 19 Oct 16:14:35 16:16:03 12° 324° (NW) 16:17:31 435.950
BEESAT 19 Oct 16:20:34 16:24:42 28° 96° (E) 16:28:49 436.000
PCSat 19 Oct 16:23:03 16:23:59 10° 31° (NNE) 16:24:57 145.827
DX 1 19 Oct 16:32:00 16:35:08 20° 295° (WNW) 16:38:15 434.975-435.025
SO-50 19 Oct 16:48:38 16:53:16 84° 57° (ENE) 16:57:56 436.795
ITAMSAT 1 19 Oct 16:55:45 17:00:45 49° 260° (W) 17:05:49 435.822/435.867
UKube-1 19 Oct 16:58:24 17:01:04 16° 297° (WNW) 17:03:44 .
AO-7 19 Oct 17:00:40 17:08:32 46° 259° (W) 17:16:27 .
nSIGHT-1 19 Oct 17:19:01 17:22:13 68° 32° (NNE) 17:25:24 .
MOZHAYETS 4 19 Oct 17:21:10 17:25:41 59° 286° (WNW) 17:30:09
CUTE-I 19 Oct 17:22:40 17:24:16 11° 56° (NE) 17:25:53 437.470
CUBESAT XI-V 19 Oct 17:29:55 17:34:12 38° 97° (E) 17:38:29 437.345
ITUPSAT 1 19 Oct 17:41:49 17:46:24 46° 290° (WNW) 17:50:57 437.325
ISS 19 Oct 17:49:31 17:52:47 73° 215° (SW) 17:56:01 437.550
HO-68 19 Oct 17:55:49 17:59:47 16° 51° (NE) 18:03:45 435.675
BEESAT 19 Oct 17:58:14 18:02:27 32° 293° (WNW) 18:06:38 436.000
PCSat 19 Oct 18:03:36 18:08:49 45° 53° (NE) 18:14:00 145.827
DOVE 4 19 Oct 18:05:01 18:09:11 81° 258° (WSW) 18:13:32 437.250
XW-2F 19 Oct 18:12:04 18:15:08 24° 69° (ENE) 18:18:12 145.980 - 146.000
KAITUO 1B 19 Oct 18:12:15 18:14:56 19° 68° (ENE) 18:17:36 145.475/437.950
LilacSat-2 19 Oct 18:15:02 18:18:24 30° 71° (ENE) 18:21:46 437.200
XW-2D 19 Oct 18:23:16 18:26:45 36° 72° (ENE) 18:30:14 145.860 - 145.880
NUDT-PHONESAT 19 Oct 18:27:21 18:30:31 27° 70° (ENE) 18:33:40 437.300
SO-50 19 Oct 18:31:34 18:33:04 11° 252° (WSW) 18:34:34 436.795
XW-2B 19 Oct 18:36:28 18:40:08 50° 73° (ENE) 18:43:49 145.730 - 145.750
CUBEBUG 2 19 Oct 18:48:33 18:50:10 12° 60° (ENE) 18:51:48 437.445
KKS-1 19 Oct 18:54:25 18:58:56 84° 105° (ESE) 19:03:24 437.445
nSIGHT-1 19 Oct 18:56:18 18:58:08 14° 228° (SW) 18:59:58 .
CUTE-I 19 Oct 18:58:07 19:03:25 77° 73° (ENE) 19:08:45 437.470
XW-2C 19 Oct 18:59:32 19:03:20 81° 259° (W) 19:07:08 145.795 - 145.815
CUBESAT XI-V 19 Oct 19:07:47 19:11:21 23° 294° (WNW) 19:14:54 437.345
UWE-3 19 Oct 19:26:55 19:29:50 17° 63° (ENE) 19:32:46 435.000/436.395/437.385
YUBILEINY 19 Oct 19:27:08 19:30:26 12° 54° (NE) 19:33:44 435.215
STARS 19 Oct 19:29:34 19:34:02 81° 104° (ESE) 19:38:28 437.465
CUTE 1.7 + AOD 2 19 Oct 19:29:59 19:34:00 44° 72° (ENE) 19:38:02 437.475
SEEDS 19 Oct 19:38:59 19:42:45 34° 70° (ENE) 19:46:32 437.485
HO-68 19 Oct 19:39:12 19:46:19 74° 71° (ENE) 19:53:30 435.675
STRAND 1 19 Oct 19:41:03 19:41:19 10° 87° (E) 19:41:35 437.568
KAITUO 1B 19 Oct 19:45:25 19:48:42 29° 263° (W) 19:52:01 145.475/437.950
XW-2F 19 Oct 19:46:07 19:49:10 23° 265° (W) 19:52:14 145.980 - 146.000
PCSat 19 Oct 19:47:29 19:51:58 27° 252° (WSW) 19:56:25 145.827
LilacSat-2 19 Oct 19:49:56 19:52:42 19° 266° (W) 19:55:29 437.200
XW-2D 19 Oct 19:58:41 20:01:02 16° 268° (W) 20:03:24 145.860 - 145.880
NUDT-PHONESAT 19 Oct 20:01:33 20:04:21 20° 266° (W) 20:07:09 437.300
AAUSAT CUBESAT 2 19 Oct 20:05:32 20:09:05 29° 70° (ENE) 20:12:39 437.432
XW-2A 19 Oct 20:13:03 20:16:20 46° 74° (ENE) 20:19:37 145.665 - 145.685
XW-2B 19 Oct 20:13:16 20:14:35 11° 270° (W) 20:15:54 145.730 - 145.750
AO-73 19 Oct 20:19:48 20:23:37 27° 68° (ENE) 20:27:25 145.935
CUBEBUG 2 19 Oct 20:21:22 20:26:01 86° 254° (WSW) 20:30:48 437.445
KKS-1 19 Oct 20:33:31 20:34:47 11° 301° (WNW) 20:36:04 437.445
ZACube-1 19 Oct 20:40:40 20:45:04 48° 73° (ENE) 20:49:29 437.345
CUTE-I 19 Oct 20:41:29 20:44:02 14° 271° (W) 20:46:37 437.470
UWE-3 19 Oct 21:01:15 21:05:48 57° 260° (W) 21:10:26 435.000/436.395/437.385
O/OREOS (USA 219) 19 Oct 21:02:49 21:06:27 24° 102° (ESE) 21:10:07 437.305
CUTE 1.7 + AOD 2 19 Oct 21:07:26 21:10:03 16° 268° (W) 21:12:40 437.475
STARS 19 Oct 21:08:21 21:09:42 11° 300° (WNW) 21:11:03 437.465
BEESAT 2 19 Oct 21:14:39 21:16:06 12° 36° (NE) 21:17:34 435.950
SEEDS 19 Oct 21:15:24 21:18:30 20° 267° (W) 21:21:37 437.485
STRAND 1 19 Oct 21:16:01 21:21:12 87° 101° (E) 21:26:22 437.568
Oscar 11 19 Oct 21:18:55 21:23:15 75° 75° (ENE) 21:27:35 .
YUBILEINY 19 Oct 21:20:41 21:29:24 61° 78° (ENE) 21:38:05 435.215
HO-68 19 Oct 21:29:33 21:34:42 21° 269° (W) 21:39:54 435.675
BEESAT 3 19 Oct 21:31:40 21:35:23 37° 50° (NE) 21:39:02 437.485
DELFI C3 19 Oct 21:40:29 21:43:44 26° 69° (ENE) 21:47:00 145.870
AAUSAT CUBESAT 2 19 Oct 21:41:17 21:44:32 23° 266° (W) 21:47:48 437.432
FO-29 19 Oct 21:42:36 21:48:50 34° 96° (E) 21:55:35 435.910
AO-73 19 Oct 21:55:38 21:59:42 31° 264° (W) 22:03:47 145.935
AO-85 19 Oct 22:10:38 22:14:29 27° 47° (NE) 22:18:34 145.980
ZACube-1 19 Oct 22:18:33 22:21:35 17° 269° (W) 22:24:38 437.345
EO-88 19 Oct 22:34:12 22:37:46 58° 75° (ENE) 22:41:21 145.990 - 145.960
O/OREOS (USA 219) 19 Oct 22:41:28 22:45:39 35° 300° (WNW) 22:49:53 437.305
Max Valier Satellite 19 Oct 22:42:20 22:46:04 77° 257° (WSW) 22:49:49 145.860
BEESAT 2 19 Oct 22:50:30 22:54:34 76° 57° (ENE) 22:58:32 435.950
STRAND 1 19 Oct 22:57:16 22:59:39 13° 302° (WNW) 23:02:01 437.568
BEESAT 3 19 Oct 23:09:46 23:12:40 20° 248° (WSW) 23:15:31 437.485
PRISM 19 Oct 23:12:22 23:15:20 19° 94° (E) 23:18:19 437.425
DELFI C3 19 Oct 23:15:18 23:18:26 23° 265° (W) 23:21:36 145.870
ESTCUBE 1 19 Oct 23:15:28 23:18:46 21° 65° (ENE) 23:22:05 437.505/2401.250
YUBILEINY 19 Oct 23:18:20 23:25:35 30° 277° (W) 23:32:52 435.215
LO-87 19 Oct 23:26:11 23:29:21 30° 71° (ENE) 23:32:33 145.935 - 145.965
FO-29 19 Oct 23:27:26 23:33:56 49° 291° (WNW) 23:41:05 435.910
UNISAT 6 19 Oct 23:30:26 23:35:05 76° 102° (ESE) 23:39:36 437.425
RS-15 19 Oct 23:35:40 23:41:31 15° 94° (E) 23:47:21 29.354- 29.394
TIGRISAT 19 Oct 23:45:26 23:50:05 82° 284° (WNW) 23:54:35 435.000
AO-85 19 Oct 23:50:40 23:55:00 42° 242° (WSW) 23:59:38 145.980
SPROUT 20 Oct 00:04:13 00:06:53 16° 64° (ENE) 00:09:33 437.525
AIST 2D 20 Oct 00:32:43 00:35:58 38° 98° (E) 00:39:13 435.315
EO-79 20 Oct 00:35:29 00:38:08 16° 92° (E) 00:40:45 145.935-145.965
POLYITAN 1 20 Oct 00:39:51 00:42:45 18° 93° (E) 00:45:38 437.675
VELOX 1 20 Oct 00:43:25 00:47:12 29° 68° (ENE) 00:51:00 145.980
PRISM 20 Oct 00:46:56 00:50:42 35° 290° (WNW) 00:54:28 437.425
ESTCUBE 1 20 Oct 00:51:04 00:55:18 40° 262° (W) 00:59:32 437.505/2401.250
QB50P2 20 Oct 00:59:22 01:03:12 32° 96° (E) 01:07:00 145.880/145.840
LO-87 20 Oct 01:00:27 01:02:49 17° 267° (W) 01:05:13 145.935 - 145.965
NANOSAT C BR1 20 Oct 01:03:16 01:06:57 28° 96° (E) 01:10:36 145.865
UNISAT 6 20 Oct 01:09:10 01:11:06 13° 300° (WNW) 01:13:02 437.425
DUCHIFAT 1 20 Oct 01:14:13 01:18:03 32° 97° (E) 01:21:50 145.980
BUGSAT 1 20 Oct 01:26:14 01:27:26 11° 89° (E) 01:28:36 437.445
SPROUT 20 Oct 01:38:14 01:42:22 48° 261° (W) 01:46:33 437.525
RS-15 20 Oct 01:39:26 01:51:30 67° 115° (ESE) 02:03:36 29.354- 29.394
50 SAT 20 Oct 01:49:22 01:52:24 38° 73° (ENE) 01:55:28 437.505
DX 1 20 Oct 01:51:02 01:55:03 39° 70° (ENE) 01:59:04 434.975-435.025
AIST 2D 20 Oct 02:07:10 02:08:47 13° 294° (WNW) 02:10:25 435.315
EO-79 20 Oct 02:10:02 02:14:07 45° 288° (WNW) 02:18:09 145.935-145.965
POLYITAN 1 20 Oct 02:14:41 02:18:42 40° 289° (WNW) 02:22:40 437.675
UKube-1 20 Oct 02:15:59 02:20:05 46° 72° (ENE) 02:24:12 .
VELOX 1 20 Oct 02:19:57 02:23:36 26° 265° (W) 02:27:17 145.980
M-CUBED/EXP-1 PRIME 20 Oct 02:24:15 02:25:39 12° 99° (E) 02:27:04 437.505
QB50P2 20 Oct 02:35:26 02:38:49 23° 293° (WNW) 02:42:10 145.880/145.840
NANOSAT C BR1 20 Oct 02:39:03 02:42:33 26° 292° (WNW) 02:46:02 145.865
MOZHAYETS 4 20 Oct 02:48:16 02:51:04 16° 63° (ENE) 02:53:54
DUCHIFAT 1 20 Oct 02:50:12 02:53:31 22° 293° (WNW) 02:56:48 145.980
Oscar 19 20 Oct 02:56:44 03:01:44 52° 100° (E) 03:06:42 437.125/150
BUGSAT 1 20 Oct 02:59:00 03:03:13 65° 286° (WNW) 03:07:20 437.445
NO-84 20 Oct 03:09:48 03:12:22 16° 124° (SE) 03:14:56 435.350 FM
ITUPSAT 1 20 Oct 03:12:02 03:15:58 26° 66° (ENE) 03:19:56 437.325
50 SAT 20 Oct 03:24:12 03:24:55 11° 268° (W) 03:25:38 437.505
Gurwin Techsat 1B 20 Oct 03:24:29 03:29:48 66° 102° (ESE) 03:35:04 435.225
BEESAT 20 Oct 03:27:20 03:31:42 36° 68° (ENE) 03:36:04 436.000
DX 1 20 Oct 03:28:16 03:31:22 19° 267° (W) 03:34:29 434.975-435.025
RS-15 20 Oct 03:53:01 04:04:43 46° 320° (NW) 04:16:21 29.354- 29.394
UKube-1 20 Oct 03:53:40 03:56:20 16° 268° (W) 03:59:01 .
M-CUBED/EXP-1 PRIME 20 Oct 03:56:49 04:00:14 47° 292° (WNW) 04:03:51 437.505
MOZHAYETS 4 20 Oct 04:23:12 04:27:45 58° 260° (W) 04:32:20
CUBESAT XI-V 20 Oct 04:33:36 04:37:54 40° 70° (ENE) 04:42:13 437.345
Oscar 19 20 Oct 04:36:56 04:40:40 21° 297° (WNW) 04:44:23 437.125/150
NO-84 20 Oct 04:45:01 04:49:20 82° 319° (NW) 04:53:35 435.350 FM
ITUPSAT 1 20 Oct 04:49:12 04:53:37 36° 262° (W) 04:58:04 437.325
AO-7 20 Oct 05:00:47 05:08:58 59° 104° (ESE) 05:17:07 .
BEESAT 20 Oct 05:05:37 05:09:31 25° 265° (W) 05:13:28 436.000
Gurwin Techsat 1B 20 Oct 05:05:42 05:09:12 18° 299° (WNW) 05:12:41 435.225
ITAMSAT 1 20 Oct 05:07:37 05:12:46 55° 101° (E) 05:17:53 435.822/435.867
KKS-1 20 Oct 05:52:41 05:57:06 83° 77° (ENE) 06:01:35 437.445
DOVE 4 20 Oct 06:02:27 06:06:45 28° 95° (E) 06:11:10 437.250
RS-15 20 Oct 06:11:50 06:21:27 25° 353° (N) 06:30:52 29.354- 29.394
CUBESAT XI-V 20 Oct 06:11:56 06:15:24 21° 267° (W) 06:18:53 437.345
NO-84 20 Oct 06:23:54 06:27:16 22° 338° (NNW) 06:30:33 435.350 FM
STARS 20 Oct 06:26:20 06:30:42 77° 74° (ENE) 06:35:07 437.465
ITAMSAT 1 20 Oct 06:48:01 06:51:48 21° 298° (WNW) 06:55:35 435.822/435.867
AO-7 20 Oct 06:54:07 07:01:19 35° 303° (WNW) 07:08:32 .
STRAND 1 20 Oct 06:55:35 06:58:57 18° 61° (ENE) 07:02:19 437.568
SO-50 20 Oct 07:04:25 07:07:50 22° 112° (ESE) 07:11:15 436.795
HO-68 20 Oct 07:09:19 07:11:59 12° 86° (E) 07:14:38 435.675
O/OREOS (USA 219) 20 Oct 07:11:08 07:15:39 52° 64° (ENE) 07:20:06 437.305
CUTE-I 20 Oct 07:14:49 07:19:27 29° 95° (E) 07:24:04 437.470
KAITUO 1B 20 Oct 07:15:38 07:18:35 22° 95° (E) 07:21:31 145.475/437.950
XW-2F 20 Oct 07:16:42 07:20:01 30° 97° (E) 07:23:18 145.980 - 146.000
LilacSat-2 20 Oct 07:21:10 07:24:44 39° 98° (E) 07:28:16 437.200
XW-2D 20 Oct 07:28:39 07:32:17 47° 99° (E) 07:35:54 145.860 - 145.880
NUDT-PHONESAT 20 Oct 07:29:59 07:33:18 32° 97° (E) 07:36:35 437.300
DOVE 4 20 Oct 07:39:53 07:44:25 36° 290° (WNW) 07:49:06 437.250
XW-2B 20 Oct 07:42:02 07:45:46 68° 102° (ESE) 07:49:28 145.730 - 145.750
FO-29 20 Oct 08:00:04 08:02:06 12° 54° (NE) 08:04:11 435.910
NO-84 20 Oct 08:03:43 08:05:54 14° 359° (N) 08:08:02 435.350 FM
XW-2C 20 Oct 08:05:20 08:09:01 58° 285° (WNW) 08:12:40 145.795 - 145.815
CUBEBUG 2 20 Oct 08:12:29 08:15:54 20° 92° (E) 08:19:12 437.445
RS-15 20 Oct 08:28:23 08:39:03 34° 28° (NNE) 08:49:13 29.354- 29.394
STRAND 1 20 Oct 08:32:32 08:37:36 63° 259° (WSW) 08:42:44 437.568
YUBILEINY 20 Oct 08:32:44 08:35:37 12° 72° (ENE) 08:38:29 435.215
SO-50 20 Oct 08:43:44 08:48:00 44° 310° (NW) 08:52:20 436.795
PCSat 20 Oct 08:46:07 08:50:58 35° 111° (ESE) 08:55:51 145.827
CUTE 1.7 + AOD 2 20 Oct 08:49:25 08:53:39 83° 105° (ESE) 08:57:50 437.475
KAITUO 1B 20 Oct 08:49:31 08:52:29 23° 291° (WNW) 08:55:26 145.475/437.950
UWE-3 20 Oct 08:50:37 08:54:30 28° 94° (E) 08:58:16 435.000/436.395/437.385
XW-2F 20 Oct 08:51:18 08:53:55 18° 293° (WNW) 08:56:31 145.980 - 146.000
O/OREOS (USA 219) 20 Oct 08:51:47 08:54:36 16° 261° (W) 08:57:23 437.305
HO-68 20 Oct 08:53:37 09:00:52 74° 105° (ESE) 09:08:02 435.675
CUTE-I 20 Oct 08:54:37 08:59:32 38° 292° (WNW) 09:04:28 437.470
LilacSat-2 20 Oct 08:56:30 08:58:40 15° 295° (WNW) 09:00:49 437.200
SEEDS 20 Oct 08:56:56 09:01:04 61° 101° (E) 09:05:11 437.485
XW-2D 20 Oct 09:04:23 09:06:02 13° 296° (WNW) 09:07:42 145.860 - 145.880
NUDT-PHONESAT 20 Oct 09:04:31 09:06:54 17° 293° (WNW) 09:09:17 437.300
XW-2A 20 Oct 09:06:23 09:09:35 42° 99° (E) 09:12:45 145.665 - 145.685
Oscar 11 20 Oct 09:07:07 09:09:08 13° 90° (E) 09:11:08 .
TIGRISAT 20 Oct 09:11:21 09:12:40 11° 59° (ENE) 09:13:59 435.000
AAUSAT CUBESAT 2 20 Oct 09:21:23 09:25:24 49° 99° (E) 09:29:24 437.432
FO-29 20 Oct 09:40:59 09:46:11 85° 75° (ENE) 09:51:49 435.910
NO-84 20 Oct 09:41:26 09:44:32 21° 21° (NNE) 09:47:28 435.350 FM
AO-73 20 Oct 09:42:28 09:46:42 46° 99° (E) 09:50:46 145.935
CUBEBUG 2 20 Oct 09:48:18 09:52:41 42° 289° (WNW) 09:56:56 437.445
nSIGHT-1 20 Oct 09:58:55 10:00:24 13° 131° (SE) 10:01:54 .
PRISM 20 Oct 10:02:48 10:05:12 16° 64° (ENE) 10:07:38 437.425
ZACube-1 20 Oct 10:04:21 10:08:46 87° 278° (W) 10:13:02 437.345
YUBILEINY 20 Oct 10:22:02 10:30:35 68° 93° (E) 10:39:14 435.215
UWE-3 20 Oct 10:27:01 10:30:53 28° 292° (WNW) 10:34:39 435.000/436.395/437.385
UNISAT 6 20 Oct 10:29:08 10:33:45 70° 75° (ENE) 10:38:26 437.425
PCSat 20 Oct 10:29:20 10:34:19 36° 309° (NW) 10:39:19 145.827
ISS 20 Oct 10:30:13 10:32:49 23° 135° (SE) 10:35:26 437.550
SEEDS 20 Oct 10:34:25 10:36:14 13° 297° (WNW) 10:38:03 437.485
XW-2A 20 Oct 10:41:00 10:41:53 11° 295° (WNW) 10:42:46 145.665 - 145.685
Oscar 11 20 Oct 10:41:24 10:45:38 56° 286° (WNW) 10:49:48 .
RS-15 20 Oct 10:41:29 10:53:32 84° 56° (ENE) 11:04:52 29.354- 29.394
HO-68 20 Oct 10:42:26 10:47:53 24° 303° (WNW) 10:53:20 435.675
TIGRISAT 20 Oct 10:43:56 10:48:34 90° 225° (SW) 10:53:19 435.000
DELFI C3 20 Oct 10:50:24 10:54:06 38° 98° (E) 10:57:49 145.870
AAUSAT CUBESAT 2 20 Oct 10:58:07 11:00:27 15° 296° (WNW) 11:02:46 437.432
AIST 2D 20 Oct 11:08:13 11:10:28 16° 67° (ENE) 11:12:43 435.315
NO-84 20 Oct 11:18:34 11:22:25 86° 221° (SW) 11:25:54 435.350 FM
AO-73 20 Oct 11:19:42 11:22:30 17° 296° (WNW) 11:25:16 145.935
EO-79 20 Oct 11:29:02 11:31:17 14° 63° (ENE) 11:33:32 145.935-145.965
FO-29 20 Oct 11:30:57 11:32:15 11° 275° (W) 11:33:34 435.910
nSIGHT-1 20 Oct 11:33:05 11:36:17 76° 329° (NNW) 11:39:28 .
POLYITAN 1 20 Oct 11:33:23 11:35:57 16° 64° (ENE) 11:38:32 437.675
EO-88 20 Oct 11:35:23 11:39:01 70° 100° (E) 11:42:37 145.990 - 145.960
PRISM 20 Oct 11:36:13 11:40:06 45° 260° (W) 11:44:00 437.425
Max Valier Satellite 20 Oct 11:45:09 11:48:48 60° 285° (WNW) 11:52:23 145.860
